Great Bend, KS

2:14 PM CDT on April 30, 2017 (GMT -0500)
Great Bend Municipal

Weather History for KGBD - April, 2014

Change the Weather History Date:

Friday, April 25, 2014

  Actual Average Record
Temperature  
Mean Temperature 62 °F -  
Max Temperature 84 °F 72 °F 94 °F (1989)
Min Temperature 41 °F 47 °F 28 °F (2013)
Degree Days  
Heating Degree Days 2    
Growing Degree Days 12 (Base 50)    
Moisture  
Dew Point 37 °F    
Average Humidity 44    
Maximum Humidity 70    
Minimum Humidity 16    
Precipitation  
Precipitation 0.00 in - - ()
Sea Level Pressure  
Sea Level Pressure 29.83 in    
Wind  
Wind Speed 12 mph (SSW)    
Max Wind Speed 28 mph    
Max Gust Speed 37 mph    
Visibility 10 miles    
Events      
Averages and records for this station are not official NWS values.
T = Trace of Precipitation, MM = Missing Value Source: NWS Daily Summary

Daily Weather History Graph

Daily Weather History Graph

Search for Another Location

Airport or City:

Trip Planner

Search our weather history database for the weather conditions in past years. The results will help you decide how hot, cold, wet, or windy it might be!

Date:

Astronomy

Apr. 25, 2014 Rise Set
Actual Time 6:46 AM CDT 8:21 PM CDT
Civil Twilight 6:18 AM CDT 8:49 PM CDT
Nautical Twilight 5:44 AM CDT 9:23 PM CDT
Astronomical Twilight 5:08 AM CDT 9:59 PM CDT
Moon 4:31 AM CDT (4/25) 4:48 PM CDT (4/25)
Length of Visible Light 14h 31m
Length of Day
13h 35m
Waning Crescent, 15% of the Moon is Illuminated
Apr 25
Waning Crescent
Apr 29
New
May 6
First Quarter
May 14
Full
May 21
Last Quarter

Hourly Weather History & Observations

Time (CDT) Temp. Windchill Dew Point Humidity Pressure Visibility Wind Dir Wind Speed Gust Speed Precip Events Conditions
12:15 AM 44.6 °F 42.2 °F 33.8 °F 66% 29.90 in 10.0 mi SSW 4.6 mph - N/A   Clear
12:35 AM 42.8 °F 39.3 °F 33.8 °F 70% 29.90 in 10.0 mi SW 5.8 mph - N/A   Clear
12:55 AM 42.8 °F 38.0 °F 33.8 °F 70% 29.90 in 10.0 mi SW 8.1 mph - N/A   Clear
1:15 AM 41.0 °F 36.4 °F 32.0 °F 70% 29.90 in 10.0 mi SW 6.9 mph - N/A   Clear
1:35 AM 42.8 °F 38.6 °F 33.8 °F 70% 29.90 in 10.0 mi SW 6.9 mph - N/A   Clear
1:55 AM 41.0 °F 36.4 °F 32.0 °F 70% 29.90 in 10.0 mi SW 6.9 mph - N/A   Clear
2:15 AM 42.8 °F 37.5 °F 33.8 °F 70% 29.90 in 10.0 mi SW 9.2 mph - N/A   Clear
2:35 AM 42.8 °F 38.6 °F 33.8 °F 70% 29.90 in 10.0 mi SW 6.9 mph - N/A   Clear
2:55 AM 41.0 °F 37.1 °F 32.0 °F 70% 29.89 in 10.0 mi SW 5.8 mph - N/A   Clear
3:15 AM 41.0 °F 36.4 °F 32.0 °F 70% 29.89 in 10.0 mi SW 6.9 mph - N/A   Clear
3:35 AM 41.0 °F 36.4 °F 32.0 °F 70% 29.90 in 10.0 mi SW 6.9 mph - N/A   Clear
3:55 AM 41.0 °F 35.2 °F 32.0 °F 70% 29.90 in 10.0 mi SSW 9.2 mph - N/A   Clear
4:15 AM 41.0 °F 37.1 °F 30.2 °F 65% 29.90 in 10.0 mi SW 5.8 mph - N/A   Clear
4:35 AM 41.0 °F 36.4 °F 30.2 °F 65% 29.90 in 10.0 mi SSW 6.9 mph - N/A   Clear
4:55 AM 41.0 °F 37.1 °F 30.2 °F 65% 29.90 in 10.0 mi SSW 5.8 mph - N/A   Clear
5:15 AM 41.0 °F 34.7 °F 32.0 °F 70% 29.90 in 10.0 mi SSW 10.4 mph - N/A   Clear
5:35 AM 44.6 °F 38.8 °F 33.8 °F 66% 29.90 in 10.0 mi SSW 11.5 mph - N/A   Clear
5:55 AM 42.8 °F 37.0 °F 33.8 °F 70% 29.90 in 10.0 mi SSW 10.4 mph - N/A   Clear
6:15 AM 44.6 °F 38.8 °F 33.8 °F 66% 29.90 in 10.0 mi SSW 11.5 mph - N/A   Clear
6:35 AM 44.6 °F 38.4 °F 33.8 °F 66% 29.90 in 10.0 mi SSW 12.7 mph - N/A   Clear
6:55 AM 44.6 °F 39.7 °F 33.8 °F 66% 29.91 in 10.0 mi SSW 9.2 mph - N/A   Clear
7:15 AM 44.6 °F 38.8 °F 33.8 °F 66% 29.91 in 10.0 mi SSW 11.5 mph - N/A   Clear
7:35 AM 46.4 °F 41.1 °F 33.8 °F 62% 29.91 in 10.0 mi SSW 11.5 mph - N/A   Clear
7:55 AM 48.2 °F - 35.6 °F 62% 29.91 in 10.0 mi SSW 10.4 mph - N/A   Clear
8:15 AM 50.0 °F - 35.6 °F 58% 29.92 in 10.0 mi SSW 10.4 mph - N/A   Clear
8:35 AM 51.8 °F - 37.4 °F 58% 29.92 in 10.0 mi SSW 12.7 mph - N/A   Clear
8:55 AM 57.2 °F - 37.4 °F 48% 29.92 in 10.0 mi SSW 17.3 mph - N/A   Clear
9:15 AM 60.8 °F - 37.4 °F 42% 29.92 in 10.0 mi SSW 16.1 mph 21.9 mph N/A   Clear
9:35 AM 62.6 °F - 37.4 °F 39% 29.91 in 10.0 mi SSW 24.2 mph 27.6 mph N/A   Clear
9:55 AM 64.4 °F - 37.4 °F 37% 29.91 in 10.0 mi SSW 24.2 mph 29.9 mph N/A   Clear
10:15 AM 66.2 °F - 39.2 °F 37% 29.90 in 10.0 mi South 24.2 mph 29.9 mph N/A   Clear
10:35 AM 66.2 °F - 37.4 °F 35% 29.90 in 10.0 mi South 21.9 mph 26.5 mph N/A   Clear
10:55 AM 69.8 °F - 37.4 °F 31% 29.89 in 10.0 mi South 23.0 mph 28.8 mph N/A   Clear
11:15 AM 69.8 °F - 37.4 °F 31% 29.88 in 10.0 mi South 23.0 mph 34.5 mph N/A   Clear
11:35 AM 71.6 °F - 37.4 °F 29% 29.88 in 10.0 mi South 25.3 mph 34.5 mph N/A   Clear
11:55 AM 73.4 °F - 39.2 °F 29% 29.86 in 10.0 mi SSW 25.3 mph 34.5 mph N/A   Clear
12:15 PM 73.4 °F - 39.2 °F 29% 29.86 in 10.0 mi SSW 24.2 mph 33.4 mph N/A   Clear
12:35 PM 73.4 °F - 37.4 °F 27% 29.85 in 10.0 mi South 26.5 mph 35.7 mph N/A   Clear
12:55 PM 73.4 °F - 39.2 °F 29% 29.84 in 10.0 mi SSW 27.6 mph 36.8 mph N/A   Clear
1:15 PM 75.2 °F - 39.2 °F 27% 29.83 in 10.0 mi South 24.2 mph 33.4 mph N/A   Clear
1:35 PM 75.2 °F - 39.2 °F 27% 29.82 in 10.0 mi South 25.3 mph 35.7 mph N/A   Clear
1:55 PM 78.8 °F - 39.2 °F 24% 29.81 in 10.0 mi SSW 21.9 mph 29.9 mph N/A   Clear
2:15 PM 78.8 °F - 41.0 °F 26% 29.80 in 10.0 mi SSW 24.2 mph 31.1 mph N/A   Clear
2:35 PM 78.8 °F - 39.2 °F 24% 29.79 in 10.0 mi SSW 20.7 mph 29.9 mph N/A   Clear
2:55 PM 80.6 °F - 41.0 °F 24% 29.77 in 10.0 mi SSW 26.5 mph 33.4 mph N/A   Clear
3:15 PM 82.4 °F - 37.4 °F 20% 29.76 in 10.0 mi SSW 20.7 mph 29.9 mph N/A   Clear
3:35 PM 82.4 °F - 39.2 °F 21% 29.75 in 10.0 mi SSW 18.4 mph 28.8 mph N/A   Clear
3:55 PM 84.2 °F - 37.4 °F 19% 29.74 in 10.0 mi South 26.5 mph 34.5 mph N/A   Clear
4:15 PM 84.2 °F - 35.6 °F 18% 29.74 in 10.0 mi SW 18.4 mph 27.6 mph N/A   Clear
4:35 PM 84.2 °F - 35.6 °F 18% 29.73 in 10.0 mi SW 18.4 mph 25.3 mph N/A   Clear
4:55 PM 84.2 °F - 35.6 °F 18% 29.72 in 10.0 mi SW 19.6 mph 27.6 mph N/A   Clear
5:15 PM 84.2 °F - 33.8 °F 16% 29.72 in 10.0 mi SW 16.1 mph 26.5 mph N/A   Clear
5:35 PM 84.2 °F - 33.8 °F 16% 29.72 in 10.0 mi WSW 17.3 mph 24.2 mph N/A   Clear
5:55 PM 84.2 °F - 33.8 °F 16% 29.72 in 10.0 mi SW 13.8 mph 19.6 mph N/A   Clear
6:15 PM 80.6 °F - 33.8 °F 18% 29.72 in 10.0 mi WSW 12.7 mph - N/A   Clear
6:35 PM 78.8 °F - 37.4 °F 23% 29.71 in 10.0 mi West 10.4 mph - N/A   Clear
6:55 PM 78.8 °F - 39.2 °F 24% 29.70 in 10.0 mi West 5.8 mph - N/A   Clear
7:15 PM 75.2 °F - 42.8 °F 31% 29.71 in 10.0 mi WNW 6.9 mph - N/A   Clear
7:35 PM 73.4 °F - 42.8 °F 33% 29.71 in 10.0 mi West 5.8 mph - N/A   Clear
7:55 PM 71.6 °F - 48.2 °F 43% 29.72 in 10.0 mi South 5.8 mph - N/A   Clear
8:15 PM 73.4 °F - 42.8 °F 33% 29.72 in 10.0 mi South 4.6 mph - N/A   Clear
8:35 PM 73.4 °F - 42.8 °F 33% 29.73 in 10.0 mi SSW 9.2 mph - N/A   Clear
8:55 PM 69.8 °F - 42.8 °F 38% 29.74 in 10.0 mi South 8.1 mph - N/A   Clear
9:15 PM 66.2 °F - 42.8 °F 43% 29.74 in 10.0 mi SSW 6.9 mph - N/A   Clear
9:35 PM 66.2 °F - 42.8 °F 43% 29.75 in 10.0 mi SSW 5.8 mph - N/A   Clear
9:55 PM 66.2 °F - 42.8 °F 43% 29.75 in 10.0 mi SSW 6.9 mph - N/A   Clear
10:15 PM 64.4 °F - 42.8 °F 45% 29.75 in 10.0 mi South 4.6 mph - N/A   Clear
10:35 PM 62.6 °F - 42.8 °F 48% 29.75 in 10.0 mi South 10.4 mph - N/A   Clear
10:55 PM 60.8 °F - 42.8 °F 52% 29.75 in 10.0 mi SSE 10.4 mph - N/A   Clear
11:15 PM 64.4 °F - 42.8 °F 45% 29.74 in 10.0 mi SSE 11.5 mph - N/A   Clear
11:35 PM 64.4 °F - 42.8 °F 45% 29.74 in 10.0 mi South 15.0 mph - N/A   Clear